Location: Natural Bridges National Monument
(37.6093°N, 109.9767°W)
Time: 12:12:27
(UTC-06:00)

Amateur Radio Satellites - All Passes

Search period start: 18 April 2014 11:42
Search period end: 19 April 2014 11:42
Location: Natural Bridges National Monument, 37.6093°N, 109.9767°W

Satellite Date Start Highest point End Downlink Frequencies (MHz)
Time Altitude Azimuth
PANSAT 18 Apr 11:54:01 11:56:57 21° 182° (S) 11:59:53 not established
Saudisat 1A 18 Apr 11:56:04 12:00:31 84° 120° (ESE) 12:05:01 436.775 MHz
FUNcube-1 18 Apr 11:56:34 12:00:50 86° 103° (ESE) 12:05:11 145.950 - 145.970 MHz USB
Oscar 11 18 Apr 12:11:10 12:14:24 21° 292° (WNW) 12:17:37 145.825 FM, Beacon 2401.500 USB
PCSat 18 Apr 12:22:04 12:25:26 17° 256° (WSW) 12:28:47 145.825 MHz
HO-68 18 Apr 12:34:42 12:39:01 17° 304° (WNW) 12:43:21 435.675 MHz FM
Oscar 19 18 Apr 12:47:56 12:50:17 13° 62° (ENE) 12:52:38 437.125 CW, 437.150 USB
Oscar 16 18 Apr 12:55:00 12:58:13 17° 64° (ENE) 13:01:27 437.025 USB, Beacon 2401.1428
KITSAT 1 18 Apr 13:27:24 13:35:29 74° 245° (WSW) 13:43:29 435.175 FM
Uribyol 2 18 Apr 13:27:52 13:31:20 18° 64° (ENE) 13:34:47 436.500 FM
PANSAT 18 Apr 13:34:37 13:36:34 14° 195° (SSW) 13:38:30 not established
Saudisat 1A 18 Apr 13:38:46 13:40:43 13° 317° (NW) 13:42:40 436.775 MHz
RS-15 18 Apr 13:41:32 13:48:10 17° 18° (NNE) 13:54:47 29.354 - 29.394 USB, Beacon 29.352 USB
Oscar 10/S400 18 Apr 14:00:36 15:27:33 26° 267° (W) 18:27:54 145.825 - 145.975 CW/USB, Beacon 145.810 USB
AO-27 18 Apr 14:05:51 14:10:40 41° 70° (ENE) 14:15:31 436.795 MHz FM
ITAMSAT 1 18 Apr 14:16:39 14:21:39 51° 72° (ENE) 14:26:39 435.822 SSB
Oscar 19 18 Apr 14:23:52 14:28:58 72° 258° (WSW) 14:34:08 437.125 CW, 437.150 USB
Oscar 16 18 Apr 14:32:05 14:37:05 55° 260° (W) 14:42:10 437.025 USB, Beacon 2401.1428
AO-Echo 18 Apr 14:34:33 14:39:43 60° 74° (ENE) 14:44:48 ?
TMSAT-1 18 Apr 14:42:11 14:45:52 20° 65° (ENE) 14:49:32 436.925 FM
JAS-1B 18 Apr 14:53:37 14:58:57 20° 63° (ENE) 15:03:44 435.800 - 435.900 CW/SSB
Uribyol 2 18 Apr 15:05:23 15:10:23 51° 260° (W) 15:15:25 436.500 FM
KITSAT 1 18 Apr 15:27:02 15:29:28 12° 262° (W) 15:31:54 435.175 FM
Gurwin Techsat 1B 18 Apr 15:31:07 15:36:25 80° 75° (ENE) 15:41:45 435.225 FM
OPAL 18 Apr 15:41:54 15:46:51 43° 101° (E) 15:51:47 ?
AO-27 18 Apr 15:46:21 15:50:18 22° 265° (W) 15:54:16 436.795 MHz FM
AO-7 18 Apr 15:52:38 15:59:56 37° 61° (ENE) 16:07:15 29.400 - 29.500 MHz
RS-15 18 Apr 15:53:52 16:04:19 47° 49° (NE) 16:14:57 29.354 - 29.394 USB, Beacon 29.352 USB
ITAMSAT 1 18 Apr 15:58:02 16:01:24 17° 267° (W) 16:04:46 435.822 SSB
SO-50 18 Apr 16:00:02 16:04:20 49° 116° (ESE) 16:08:41 436.795 FM
ISS 18 Apr 16:07:22 16:10:42 82° 138° (SE) 16:14:03 145.800 FM
AO-Echo 18 Apr 16:15:54 16:18:48 15° 268° (W) 16:21:41 ?
TMSAT-1 18 Apr 16:20:15 16:25:22 50° 260° (W) 16:30:31 436.925 FM
Uosat F 18 Apr 16:30:47 16:35:48 79° 75° (ENE) 16:40:50 435.120 FM
JAS-1B 18 Apr 16:40:36 16:49:04 76° 256° (WSW) 16:56:07 435.800 - 435.900 CW/SSB
Gurwin Techsat 1B 18 Apr 17:15:41 17:16:56 11° 270° (W) 17:18:12 435.225 FM
OPAL 18 Apr 17:21:26 17:25:26 23° 296° (WNW) 17:29:25 ?
SO-50 18 Apr 17:42:01 17:45:10 19° 313° (NW) 17:48:21 436.795 FM
AO-7 18 Apr 17:44:33 17:52:27 48° 259° (WSW) 18:00:24 29.400 - 29.500 MHz
ISS 18 Apr 17:45:38 17:47:49 16° 336° (NNW) 17:50:00 145.800 FM
RS-15 18 Apr 18:06:21 18:16:41 50° 250° (WSW) 18:27:22 29.354 - 29.394 USB, Beacon 29.352 USB
Hamsat 18 Apr 18:19:04 18:22:53 36° 72° (ENE) 18:26:45 145.90 MHz
UOSAT-12 18 Apr 18:28:11 18:32:43 86° 120° (ESE) 18:37:23 437.025 FM, 437.400 FM
JAS-1B 18 Apr 18:37:53 18:40:09 11° 269° (W) 18:42:20 435.800 - 435.900 CW/SSB
SO-67 18 Apr 18:48:58 18:49:49 11° 67° (ENE) 18:50:41 435.3500 MHz FM
JAS-2 18 Apr 19:21:01 19:26:52 58° 73° (ENE) 19:32:10 435.800 - 435.900 CW/SSB, 435.910 FM
Hamsat 18 Apr 19:56:20 19:58:59 16° 267° (W) 20:01:41 145.90 MHz
STRAND 1 18 Apr 19:57:04 20:02:09 69° 102° (ESE) 20:07:13 ?
UOSAT-12 18 Apr 20:11:25 20:13:32 13° 318° (NW) 20:15:39 437.025 FM, 437.400 FM
SO-67 18 Apr 20:19:19 20:22:35 38° 262° (W) 20:25:53 435.3500 MHz FM
Saudisat 1A 18 Apr 20:24:59 20:29:06 37° 54° (NE) 20:33:10 436.775 MHz
ISS 18 Apr 21:02:39 21:03:50 11° 17° (NNE) 21:05:01 145.800 FM
JAS-2 18 Apr 21:08:33 21:12:12 17° 266° (W) 21:15:40 435.800 - 435.900 CW/SSB, 435.910 FM
HO-68 18 Apr 21:11:13 21:18:06 55° 69° (ENE) 21:25:02 435.675 MHz FM
Oscar 11 18 Apr 21:28:30 21:31:40 21° 68° (ENE) 21:34:52 145.825 FM, Beacon 2401.500 USB
STRAND 1 18 Apr 21:38:18 21:40:44 14° 298° (WNW) 21:43:09 ?
MaSat-1 18 Apr 21:44:59 21:47:39 26° 111° (ESE) 21:50:01 437.345 MHz
Saudisat 1A 18 Apr 22:05:14 22:08:26 20° 249° (WSW) 22:11:36 436.775 MHz
ISS 18 Apr 22:38:00 22:41:16 46° 36° (NE) 22:44:30 145.800 FM
FUNcube-1 18 Apr 22:51:26 22:55:33 53° 74° (ENE) 22:59:37 145.950 - 145.970 MHz USB
HO-68 18 Apr 23:00:21 23:06:05 26° 265° (W) 23:11:51 435.675 MHz FM
Oscar 11 18 Apr 23:03:50 23:07:39 31° 263° (W) 23:11:30 145.825 FM, Beacon 2401.500 USB
ISS 19 Apr 00:15:34 00:17:44 16° 231° (SW) 00:19:53 145.800 FM
FUNcube-1 19 Apr 00:31:11 00:32:15 11° 269° (W) 00:33:19 145.950 - 145.970 MHz USB
Sapphire 19 Apr 00:32:46 00:37:24 30° 108° (ESE) 00:42:04 437.095 MHz 1200 baud AX-25 AFSK
SO-50 19 Apr 00:33:36 00:37:38 28° 51° (NE) 00:41:42 436.795 FM
PCSat 19 Apr 01:16:47 01:22:10 82° 116° (ESE) 01:27:37 145.825 MHz
AO-40 19 Apr 01:22:17 09:57:00 40° 181° (S) 01:46:19 Beacon 2401.320
KITSAT 1 19 Apr 02:01:04 02:06:24 19° 102° (ESE) 02:11:44 435.175 FM
SO-50 19 Apr 02:14:04 02:18:11 31° 247° (WSW) 02:22:20 436.795 FM
Sapphire 19 Apr 02:15:47 02:20:42 35° 305° (NW) 02:25:39 437.095 MHz 1200 baud AX-25 AFSK
AO-27 19 Apr 02:21:56 02:25:12 17° 93° (E) 02:28:27 436.795 MHz FM
ITAMSAT 1 19 Apr 02:32:17 02:36:09 21° 94° (E) 02:40:00 435.822 SSB
Oscar 19 19 Apr 02:37:31 02:42:33 47° 99° (E) 02:47:32 437.125 CW, 437.150 USB
AO-Echo 19 Apr 02:44:58 02:48:31 21° 94° (E) 02:52:00 ?
Oscar 16 19 Apr 02:45:36 02:50:46 62° 101° (E) 02:55:54 437.025 USB, Beacon 2401.1428
OPAL 19 Apr 02:55:00 02:59:56 61° 71° (ENE) 03:04:57 ?
UOSAT-12 19 Apr 02:59:43 03:04:14 43° 54° (NE) 03:08:42 437.025 FM, 437.400 FM
PCSat 19 Apr 03:03:06 03:06:15 15° 314° (NW) 03:09:25 145.825 MHz
Uribyol 2 19 Apr 03:19:52 03:25:02 67° 102° (ESE) 03:30:10 436.500 FM
Gurwin Techsat 1B 19 Apr 03:49:37 03:54:31 37° 98° (E) 03:59:24 435.225 FM
KITSAT 1 19 Apr 03:52:43 04:00:50 80° 299° (WNW) 04:09:01 435.175 FM
AO-27 19 Apr 03:59:58 04:04:59 52° 288° (WNW) 04:09:59 436.795 MHz FM
ITAMSAT 1 19 Apr 04:10:57 04:15:47 42° 289° (WNW) 04:20:37 435.822 SSB
Oscar 19 19 Apr 04:17:49 04:21:30 20° 295° (WNW) 04:25:11 437.125 CW, 437.150 USB
AO-Echo 19 Apr 04:23:03 04:27:23 35° 290° (WNW) 04:31:39 ?
Oscar 16 19 Apr 04:26:34 04:29:34 16° 297° (WNW) 04:32:34 437.025 USB, Beacon 2401.1428
JAS-1B 19 Apr 04:28:35 04:33:24 28° 97° (E) 04:38:24 435.800 - 435.900 CW/SSB
OPAL 19 Apr 04:36:41 04:39:12 14° 267° (W) 04:41:45 ?
TMSAT-1 19 Apr 04:37:51 04:43:10 77° 103° (ESE) 04:48:27 436.925 FM
UOSAT-12 19 Apr 04:40:42 04:44:04 20° 250° (WSW) 04:47:24 437.025 FM, 437.400 FM
Uosat F 19 Apr 04:41:01 04:45:17 28° 96° (E) 04:49:31 435.120 FM
Uribyol 2 19 Apr 05:01:13 05:03:54 14° 298° (WNW) 05:06:36 436.500 FM
Gurwin Techsat 1B 19 Apr 05:29:59 05:34:16 26° 293° (WNW) 05:38:33 435.225 FM
AO-7 19 Apr 05:47:40 05:55:57 67° 105° (ESE) 06:04:13 29.400 - 29.500 MHz
KITSAT 1 19 Apr 05:51:52 05:57:33 20° 321° (NW) 06:03:16 435.175 FM
RS-15 19 Apr 06:16:08 06:25:46 33° 106° (ESE) 06:35:04 29.354 - 29.394 USB, Beacon 29.352 USB
JAS-1B 19 Apr 06:19:07 06:24:08 33° 292° (WNW) 06:29:18 435.800 - 435.900 CW/SSB
Uosat F 19 Apr 06:19:41 06:24:01 30° 292° (WNW) 06:28:19 435.120 FM
TMSAT-1 19 Apr 06:20:06 06:22:23 13° 299° (WNW) 06:24:40 436.925 FM
STRAND 1 19 Apr 07:11:04 07:16:11 82° 75° (ENE) 07:21:19 ?
AO-7 19 Apr 07:41:31 07:48:04 27° 302° (WNW) 07:54:39 29.400 - 29.500 MHz
Hamsat 19 Apr 07:42:11 07:46:33 82° 283° (WNW) 07:50:55 145.90 MHz
SO-67 19 Apr 07:46:34 07:48:47 16° 94° (E) 07:50:59 435.3500 MHz FM
MaSat-1 19 Apr 07:47:23 07:50:24 65° 66° (ENE) 07:54:00 437.345 MHz
JAS-2 19 Apr 08:15:43 08:21:06 60° 102° (ESE) 08:27:01 435.800 - 435.900 CW/SSB, 435.910 FM
RS-15 19 Apr 08:26:07 08:37:22 65° 305° (NW) 08:48:18 29.354 - 29.394 USB, Beacon 29.352 USB
SO-67 19 Apr 09:19:02 09:21:55 24° 288° (WNW) 09:24:48 435.3500 MHz FM
Sapphire 19 Apr 09:22:48 09:26:33 19° 48° (NE) 09:30:16 437.095 MHz 1200 baud AX-25 AFSK
PANSAT 19 Apr 09:50:12 09:52:50 18° 170° (S) 09:55:29 not established
KITSAT 1 19 Apr 09:56:22 09:57:38 10° 24° (NNE) 09:58:54 435.175 FM
JAS-2 19 Apr 10:02:26 10:05:49 17° 295° (WNW) 10:09:23 435.800 - 435.900 CW/SSB, 435.910 FM
PCSat 19 Apr 10:06:49 10:11:59 43° 57° (ENE) 10:17:07 145.825 MHz
HO-68 19 Apr 10:28:12 10:35:22 68° 103° (ESE) 10:42:30 435.675 MHz FM
Saudisat 1A 19 Apr 10:31:28 10:34:04 15° 109° (ESE) 10:36:41 436.775 MHz
RS-15 19 Apr 10:44:30 10:52:24 21° 333° (NNW) 11:00:15 29.354 - 29.394 USB, Beacon 29.352 USB
FUNcube-1 19 Apr 10:44:31 10:46:07 12° 92° (E) 10:47:44 145.950 - 145.970 MHz USB
Oscar 11 19 Apr 10:52:52 10:57:08 52° 100° (E) 11:01:23 145.825 FM, Beacon 2401.500 USB
Sapphire 19 Apr 11:05:05 11:10:27 65° 246° (WSW) 11:15:47 437.095 MHz 1200 baud AX-25 AFSK
PANSAT 19 Apr 11:29:34 11:32:30 21° 183° (S) 11:35:25 not established
